Content
SEND FEEDBACK

Daily
Averages
Monthly
Summary
United States of America

NAPERVILLE, ILLINOIS


Home > North America > United States > Illinois
Elevation: 687 feet     Latitude: 41 49N     Longitude: 088 04W

WEATHER
 
SELECT A DAY
Number of Records: 198,991;   Date Range: 1/1/95 - 9/30/14
 
SHARE

PRINT THIS DATA

[ ← Previous Day ]
WEATHER ALMANAC - MARCH 17, 2013
[ Next Day → ]
[ °C ]   °F
Weather ElementAverageHighLow
Temperature30.7 °F35.1 °F (3:51 pm)26.1 °F (5:51 am)
Dewpoint19.9 °F23 °F (4:51 pm)15.8 °F (4:20 am)
Humidity64.4 %69 % (7:51 am)59 % (4:20 am)
Barometer30.14 in30.21 in (9:51 am)30.01 in (11:51 pm)
Wind Speed13.1 mph19.6 mph (10:51 pm)
Wind Gust26.5 mph (9:48 am)
Weather ElementAverage
Visibility10 mi
Wind DirectionESE (122.8 °)

Weather ElementTotal
Precipitation---
Heating Degree Days34.4 (Base 65)
Averaged from 25 records on March 17, 2013
WEATHER CONDITIONS BREAKOUT
WIND DIRECTION BREAKOUT
WEATHER BY HOUR - MARCH 17, 2013
[ °C ]   °F
Local TimeTemperatureDewpointHumidityBarometerVisibilityWind DirectionWind SpeedGust SpeedPrecipitationEventsConditions
1:51 AM30.0 °F19.9 °F66 %30.13 in10.0 miNNW (340°)10.4 mphOvercast
2:51 AM28.9 °F19.0 °F67 %30.14 in10.0 miNNW (340°)10.4 mphOvercast
3:51 AM28.9 °F19.0 °F67 %30.14 in10.0 miNorth (360°)12.7 mphOvercast
4:20 AM28.4 °F15.8 °F59 %30.11 in10.0 miNorth (10°)15.0 mphOvercast
4:51 AM27.0 °F16.0 °F63 %30.14 in10.0 miNorth (10°)11.5 mphOvercast
5:51 AM26.1 °F16.0 °F66 %30.17 in10.0 miNorth (10°)9.2 mphOvercast
6:51 AM26.1 °F16.0 °F66 %30.19 in10.0 miNorth (350°)4.6 mphOvercast
7:51 AM26.1 °F17.1 °F69 %30.20 in10.0 miNorth (350°)6.9 mphMostly Cloudy
8:51 AM28.0 °F18.0 °F66 %30.20 in10.0 miNorth (10°)5.8 mphOvercast
9:48 AM30.2 °F19.4 °F64 %30.18 in10.0 miENE (70°)17.3 mph26.5 mphOvercast
9:51 AM30.9 °F19.9 °F64 %30.21 in10.0 miENE (60°)16.1 mph26.5 mphOvercast
10:51 AM32.0 °F19.9 °F61 %30.21 in10.0 miENE (60°)15.0 mph23.0 mphOvercast
11:51 AM32.0 °F21.0 °F64 %30.21 in10.0 miENE (70°)13.8 mph20.7 mphOvercast
12:51 PM32.0 °F21.0 °F64 %30.20 in10.0 miEast (80°)13.8 mphOvercast
1:51 PM32.0 °F19.4 °F60 %30.15 in10.0 miENE (70°)18.4 mphMostly Cloudy
2:51 PM34.0 °F21.0 °F59 %30.14 in10.0 miEast (80°)16.1 mphMostly Cloudy
3:51 PM35.1 °F21.9 °F59 %30.12 in10.0 miENE (70°)15.0 mphMostly Cloudy
4:51 PM34.0 °F23.0 °F64 %30.11 in10.0 miEast (80°)15.0 mphMostly Cloudy
5:51 PM33.1 °F21.9 °F64 %30.11 in10.0 miEast (80°)15.0 mphMostly Cloudy
6:51 PM32.0 °F21.0 °F64 %30.10 in10.0 miEast (80°)13.8 mphOvercast
7:51 PM30.9 °F21.9 °F69 %30.09 in10.0 miENE (70°)11.5 mphMostly Cloudy
8:51 PM32.0 °F23.0 °F69 %30.06 in10.0 miEast (80°)8.1 mphOvercast
9:51 PM34.0 °F21.9 °F61 %30.04 in10.0 miESE (110°)18.4 mph24.2 mphOvercast
10:51 PM32.0 °F21.9 °F66 %30.03 in10.0 miESE (110°)19.6 mphOvercast
11:51 PM30.9 °F21.9 °F69 %30.01 in10.0 miESE (120°)15.0 mphOvercast
Hourly data recorded from KORD, located miles away from Naperville, Illinois







STORIES FROM OUR PARTNERS